Tracking 19854 objects as of 22-Sep-2019
HD Live streaming from Space Station
objects crossing your sky now

DELTA 1 DEB

Track DELTA 1 DEB now!
10-day predictions


NORAD ID: 12265
Int'l Code: 1978-026DJ
Perigee: 738.9 km
Apogee: 949.2 km
Inclination: 98.7 °
Period: 101.7 minutes
Semi major axis: 7215 km
RCS: 0.051 m2 (small)
Launch date: March 5, 1978
Source: United States (US)
Launch site: AIR FORCE WESTERN TEST RANGE (AFWTR)

Note: This is SATELLITE DEBRIS
aabbcc
Your satellite tracking list
Your tracking list is empty




NASA's NSSDC Master Catalog

Two Line Element Set (TLE):
1 12265U 78026DJ  19265.40602667  .00000628  00000-0  30350-3 0  9993
2 12265  98.6828  58.3108 0145735   3.8189  58.8998 14.16580621963647
Source of the keplerian elements: AFSPC